Wind_Speed
15 14 15 15 15 15 16 16 15 15 15 15 16 17 18 18 19 19 19 18 18 20 21 22 23 24 25 26 26 26 26 24 22 22 23 27 29 28 27 25 24 22 22 20 20 20 17 17 17 18 19 18 17 16 17 17 15 14 10 13 23 21 17 17 14 12 9 7 9 9 9 10 9 8 7 7 8 9 10 10 10 10 11 10 10 10 9 9
14 14 14 14 14 14 16 17 16 16 16 16 16 16 17 17 18 18 17 16 16 17 18 20 21 23 24 24 25 25 26 22 18 23 28 30 28 27 27 25 24 23 22 20 21 21 17 18 19 19 19 17 18 16 17 18 15 11 12 18 23 21 19 17 14 13 11 9 10 10 10 11 9 7 7 8 9 10 10 10 10 10 11 10 10 10 10 11
13 13 13 13 13 14 15 16 16 16 16 16 17 16 16 15 15 15 14 14 14 15 17 19 20 21 21 22 22 23 26 19 17 26 29 27 26 26 25 24 24 23 23 21 21 22 17 16 17 17 14 15 17 15 15 16 15 13 14 21 23 19 18 17 14 12 12 11 11 11 11 11 8 7 8 8 9 10 10 9 10 10 10 10 10 10 11 12
12 12 12 12 12 13 13 14 15 15 15 16 16 16 16 15 15 15 15 14 14 15 18 21 21 22 21 21 21 23 25 19 20 28 26 23 24 24 23 23 23 22 23 21 20 20 17 15 16 13 9 14 17 13 13 14 14 16 18 22 23 16 15 18 15 12 12 12 12 11 11 10 8 8 8 8 9 10 9 9 9 9 10 11 11 12 13 13
11 12 12 12 11 11 12 13 13 14 14 15 15 15 15 14 15 16 16 15 14 15 18 20 21 21 22 21 21 23 22 19 23 26 22 22 22 22 22 21 21 21 21 19 19 19 16 16 15 10 9 16 16 12 15 15 12 15 21 23 21 14 12 17 15 12 13 13 12 11 11 8 7 8 8 8 9 8 7 8 9 10 12 12 12 12 13 13
11 11 12 12 11 11 11 12 13 14 14 15 15 14 14 13 14 15 16 16 14 13 15 16 17 19 18 17 17 18 18 20 23 22 20 20 19 21 21 20 19 19 19 17 18 17 16 17 12 7 11 17 14 12 15 14 7 10 20 22 19 13 11 16 14 13 14 13 12 10 9 7 8 9 8 8 8 7 7 9 11 12 12 12 12 12 12 12
12 12 12 13 12 11 11 12 12 13 14 14 14 14 14 13 13 14 15 16 15 15 16 18 19 19 18 18 16 16 20 24 24 21 20 19 18 19 19 19 17 16 17 16 16 15 17 16 10 9 13 16 15 14 14 12 9 11 19 20 17 15 13 16 14 12 14 12 11 9 8 8 9 9 7 8 7 6 8 9 11 12 12 12 11 11 12 12
13 13 13 13 13 13 12 12 13 13 14 14 14 14 14 14 14 13 14 14 14 15 18 19 20 20 22 23 17 16 22 26 23 21 20 19 18 17 17 17 16 15 13 14 16 16 16 9 7 11 10 11 13 15 14 12 14 15 18 19 16 15 14 16 14 12 12 10 11 10 9 8 8 8 7 7 6 7 9 10 12 12 12 12 12 12 11 11
14 14 14 14 14 14 14 14 13 14 13 13 14 15 15 14 15 14 13 14 14 15 16 17 19 19 20 21 17 16 22 24 22 21 20 19 19 16 16 16 16 16 11 13 16 13 11 5 5 8 6 10 15 16 13 8 13 16 16 17 15 15 15 15 13 12 11 9 11 11 9 7 8 8 7 7 6 8 10 11 12 13 13 13 13 12 11 11
15 15 15 15 15 16 16 15 15 14 14 14 14 15 15 15 16 16 14 14 14 15 16 16 18 17 16 17 15 17 22 22 21 21 19 20 20 16 15 16 17 17 13 13 14 12 11 8 10 11 7 12 16 15 13 10 14 16 15 16 14 14 15 15 13 11 11 10 11 12 8 7 8 8 7 7 8 9 11 12 13 14 14 13 13 12 12 13
16 16 16 16 17 17 17 16 15 14 14 14 14 15 14 14 15 16 15 14 14 14 15 16 16 16 16 14 12 18 22 20 21 20 19 20 19 15 15 17 16 16 14 10 10 12 11 10 10 11 9 12 15 15 16 16 16 15 13 13 14 14 13 13 11 10 10 10 11 12 9 7 8 8 8 8 9 10 11 12 13 14 13 13 13 13 13 14
17 17 17 17 17 17 17 16 16 15 15 16 16 15 14 14 14 15 16 14 14 14 14 15 16 18 16 11 11 19 21 19 20 19 19 19 16 15 15 17 15 14 15 9 8 10 9 10 9 8 10 11 12 12 15 17 14 14 11 9 14 14 11 11 10 9 9 9 9 9 8 8 9 8 9 9 9 10 10 11 13 13 12 13 14 14 14 14
17 18 18 18 17 17 17 16 16 15 16 16 16 15 14 14 14 15 15 14 14 14 16 15 15 17 14 12 15 19 19 19 21 18 17 16 14 15 15 15 13 13 14 8 8 10 9 14 11 8 12 8 6 10 14 16 13 13 11 10 13 12 10 10 9 8 7 7 7 7 7 9 9 9 9 9 9 9 10 11 12 12 12 13 14 14 15 15
17 18 19 18 17 17 16 17 16 16 16 16 16 15 14 14 14 15 15 14 14 15 17 16 15 14 13 15 18 17 17 20 20 15 14 15 14 14 13 13 12 13 12 7 10 12 13 16 11 9 14 9 9 13 15 15 14 12 11 10 10 8 9 9 7 6 6 5 6 7 7 9 10 10 9 9 9 9 10 11 12 12 12 13 13 14 15 17
17 18 19 18 17 17 16 16 17 17 17 16 15 15 14 14 15 16 16 16 15 16 16 15 16 13 10 16 17 16 18 19 17 14 14 15 13 12 12 12 11 12 11 8 10 14 17 16 8 11 17 14 13 14 13 14 13 10 8 8 8 8 9 7 5 6 5 4 4 4 6 8 10 10 10 9 9 9 10 12 12 12 12 13 13 14 15 17
17 18 18 18 17 17 16 15 16 17 17 16 15 14 13 13 14 15 16 16 16 17 14 14 16 12 9 14 16 15 17 17 15 14 14 14 13 12 12 11 10 12 11 9 11 14 18 14 8 13 18 17 15 13 12 13 11 9 8 8 8 7 8 6 5 5 5 5 5 5 5 7 9 10 10 10 10 11 11 12 12 12 12 13 14 14 15 15
16 16 17 17 17 17 16 16 15 16 16 16 14 13 12 12 14 15 15 15 14 14 13 12 14 12 12 14 15 16 16 14 13 13 13 13 12 11 10 11 11 12 11 10 11 14 17 13 10 15 18 16 14 11 11 11 10 9 8 8 8 7 6 5 4 4 4 4 5 5 5 7 9 10 11 11 11 12 12 12 12 12 12 12 13 13 13 14
15 15 16 16 16 16 16 16 15 15 15 15 14 13 12 12 14 15 16 16 15 15 14 12 11 11 14 15 15 15 13 13 12 12 12 11 11 9 9 11 11 11 11 10 11 14 14 11 11 16 17 15 12 9 9 10 9 8 7 7 8 8 7 5 4 3 3 3 4 4 5 6 8 10 12 13 13 12 12 12 12 12 11 12 13 13 13 14
15 15 16 15 15 16 16 16 15 15 15 14 14 13 12 12 12 12 12 12 12 12 12 11 10 11 15 15 14 14 13 12 11 10 10 9 9 8 9 9 9 10 10 7 11 15 12 11 13 16 17 15 13 11 10 9 8 7 6 6 7 8 8 7 6 4 3 3 4 5 5 6 7 9 12 13 14 13 13 13 13 12 12 12 13 14 14 15
15 15 16 15 15 15 15 15 15 15 15 14 13 12 12 11 9 10 12 10 12 14 15 15 15 15 15 15 13 13 13 11 10 9 9 8 8 8 8 7 8 10 10 8 11 15 11 10 15 16 16 15 12 11 9 8 7 6 5 5 6 8 8 9 9 7 6 5 5 6 7 7 7 9 11 13 14 14 14 14 13 13 14 14 14 14 15 16
14 14 15 15 15 15 15 15 15 16 15 15 14 13 14 12 10 12 12 11 16 19 17 16 16 15 14 13 14 14 12 11 10 9 8 8 7 8 7 7 8 10 9 7 8 12 9 8 14 17 15 14 12 10 8 7 6 6 5 4 5 7 8 9 9 9 9 8 8 9 8 7 8 8 10 12 13 14 15 15 15 14 15 15 15 15 16 16
14 13 13 13 14 14 14 14 14 16 16 16 15 14 14 12 10 10 6 8 18 19 17 17 15 14 13 13 13 12 12 10 9 9 8 7 6 6 6 6 7 6 7 5 6 10 8 9 15 16 15 13 11 9 7 6 5 6 6 5 5 5 6 7 9 10 11 11 11 12 11 8 7 8 9 10 12 13 15 16 16 16 16 16 16 16 16 17
14 13 13 12 12 11 12 13 13 14 16 16 15 13 12 10 10 9 5 9 18 19 17 16 13 12 12 11 10 11 12 9 8 8 8 7 6 5 5 6 5 3 4 6 6 7 7 10 14 15 13 11 10 8 6 5 4 5 6 6 6 5 5 6 9 10 11 13 13 15 14 8 5 8 8 9 11 12 14 16 17 17 17 17 17 16 16 16
13 13 12 11 10 9 9 10 11 12 15 15 13 12 12 12 11 10 9 11 17 18 16 14 12 11 10 9 9 10 10 7 6 7 8 7 6 5 6 6 5 3 4 5 4 4 7 11 13 13 12 10 9 7 5 5 4 3 4 5 5 6 5 6 9 10 12 13 13 18 16 5 4 8 9 10 10 12 14 15 16 18 18 18 17 17 16 16
13 12 12 10 10 9 8 7 7 8 12 13 12 11 11 11 11 9 9 13 16 15 13 12 11 10 9 8 8 9 8 6 6 7 8 7 6 6 6 6 6 5 6 6 5 6 9 11 12 12 11 9 8 7 5 4 3 2 2 3 4 5 6 7 8 9 12 12 14 19 13 5 8 9 9 11 11 11 13 14 16 17 19 20 19 18 17 16
13 12 11 11 10 9 8 7 5 4 6 9 9 10 11 12 11 9 9 12 13 11 9 7 7 7 8 8 8 8 7 6 6 7 7 6 6 6 6 6 7 6 7 7 6 7 9 10 11 11 10 9 8 7 6 4 3 1 2 3 4 6 7 8 8 9 10 11 15 16 9 8 11 8 9 13 12 12 13 14 16 17 19 21 21 20 19 18
13 12 11 11 10 10 9 8 6 4 3 4 6 7 8 6 4 3 4 6 8 8 7 6 5 5 5 6 6 4 5 6 6 6 6 5 4 5 6 6 6 6 6 5 4 6 7 8 9 9 9 9 8 7 5 4 4 3 4 4 5 7 8 9 10 10 10 13 15 13 10 10 11 8 10 12 12 13 14 14 16 17 19 21 22 21 20 19
11 11 11 10 10 9 8 7 7 6 4 3 5 6 5 3 3 4 1 2 3 4 5 6 6 6 4 5 4 3 6 6 4 5 5 4 4 5 5 4 4 4 2 2 3 5 5 7 8 8 8 8 7 6 5 4 5 5 5 5 7 8 9 11 11 11 13 14 11 9 9 9 10 10 9 11 14 14 14 14 15 16 18 20 22 22 21 21
9 9 9 9 9 8 8 7 6 6 5 4 2 3 4 2 1 1 2 2 1 2 4 5 6 6 5 5 5 5 6 4 4 5 4 4 5 5 4 4 5 5 3 4 5 5 5 7 7 6 6 5 5 5 5 5 5 6 6 7 8 9 11 12 12 12 13 12 7 6 7 7 9 9 7 11 15 14 14 14 14 15 17 19 21 21 21 21
7 7 8 8 7 7 7 7 6 5 5 5 4 2 2 2 2 2 2 2 3 4 5 4 5 6 5 5 5 6 6 5 6 5 4 3 3 5 5 3 5 5 4 5 5 4 5 6 5 5 4 3 4 5 6 6 6 7 8 8 8 9 11 12 13 12 10 7 4 4 7 7 5 5 8 13 15 15 14 14 14 15 16 18 20 20 20 20
6 6 6 6 6 7 7 6 6 6 5 5 5 4 3 2 2 1 2 4 6 6 5 5 5 5 6 6 6 7 7 6 5 4 4 3 3 5 4 3 5 5 4 5 4 3 5 5 4 4 4 4 4 5 6 7 8 8 9 10 9 9 8 9 10 6 3 2 3 5 9 9 6 5 10 13 15 16 15 13 14 15 16 18 19 20 20 20
6 5 5 5 6 6 6 6 6 6 6 5 4 4 2 2 0 2 7 8 7 6 5 5 5 5 6 6 6 6 6 5 5 4 3 3 3 4 2 2 4 2 1 3 2 2 3 3 3 3 4 5 5 6 7 7 8 10 10 11 9 6 5 4 4 2 3 4 5 8 11 11 10 9 10 12 14 16 15 15 15 15 16 18 19 20 20 21
6 6 5 5 5 5 6 6 6 6 6 6 4 3 2 1 2 7 11 7 5 7 6 5 5 4 5 6 5 5 4 4 4 4 3 3 3 2 0 1 2 2 1 2 2 2 1 2 2 3 4 5 6 8 8 7 8 9 10 11 7 3 4 3 3 3 5 6 10 14 13 9 10 10 10 11 14 15 16 16 16 17 18 19 21 22 22 22
6 6 5 5 5 5 6 6 6 6 6 6 5 3 2 3 5 9 9 5 6 9 7 5 5 4 4 4 4 4 3 4 3 4 3 3 3 2 0 1 2 2 2 3 2 1 2 2 2 3 3 4 6 7 8 8 7 8 10 10 6 2 1 3 4 3 5 10 15 15 9 6 9 11 10 10 13 16 17 16 17 18 19 20 22 23 24 24
6 6 5 5 5 5 6 6 6 6 5 6 5 3 2 5 7 8 7 6 8 8 6 6 5 4 4 3 3 3 2 3 3 3 3 2 2 1 0 1 1 1 2 2 2 2 2 2 2 3 3 5 6 6 8 9 6 7 10 10 7 4 3 5 6 7 9 12 11 9 7 9 14 14 10 9 13 18 18 16 16 17 19 21 23 24 24 24
6 5 5 4 5 5 5 5 6 6 6 5 4 4 5 6 7 8 8 8 8 7 6 6 5 4 3 2 2 1 1 2 2 2 2 2 2 1 1 1 1 1 2 3 3 2 2 3 3 3 3 4 5 6 8 8 6 7 10 10 9 8 6 6 7 8 8 5 5 7 9 13 15 10 8 9 15 19 19 18 18 18 19 22 23 24 24 23
5 5 5 5 5 5 5 6 5 6 7 6 5 6 7 7 8 8 8 8 7 6 5 5 4 3 2 1 1 1 1 1 0 0 0 0 1 2 2 2 2 1 2 3 2 3 4 4 4 4 5 5 5 6 7 7 7 8 9 10 10 9 7 6 5 5 5 1 5 9 12 17 14 6 8 13 16 20 21 21 21 20 21 23 23 23 23 22
5 5 5 5 5 5 5 6 6 6 7 7 7 8 8 8 8 8 8 7 6 5 4 3 3 3 2 1 1 0 0 1 2 2 1 1 2 2 2 3 3 3 3 2 3 4 4 4 5 6 6 6 6 7 7 7 7 8 9 9 10 7 4 6 5 3 3 2 6 10 13 17 12 7 11 15 16 20 23 23 23 22 23 24 24 23 22 22
5 5 5 5 5 5 6 6 7 8 8 8 8 8 8 8 9 8 7 7 6 4 3 2 2 2 1 1 1 0 1 2 2 1 1 1 2 3 3 3 3 3 4 4 4 4 4 4 4 5 6 7 7 6 6 7 8 9 9 10 11 7 5 8 5 3 2 2 4 7 11 12 11 11 13 12 16 22 24 25 25 22 23 25 24 24 23 23
4 5 5 5 5 5 6 6 7 8 8 9 9 9 9 9 9 8 7 7 6 4 4 3 3 2 2 1 1 1 2 2 2 2 2 2 2 2 3 4 4 5 5 5 5 5 6 5 5 6 7 8 8 7 8 9 10 11 10 10 10 8 8 9 7 6 4 3 0 1 8 14 14 11 10 12 19 24 25 27 25 22 23 24 24 24 24 24
4 5 5 5 5 5 6 6 7 8 8 10 11 10 10 9 9 8 7 6 5 4 4 4 3 2 1 1 1 2 2 2 3 3 3 3 3 2 3 4 5 5 5 6 6 6 6 7 8 9 10 10 10 10 10 10 10 11 12 12 11 10 9 7 5 6 5 5 3 2 9 17 13 8 11 17 23 27 28 29 26 22 22 24 23 24 25 24
4 5 5 4 4 5 5 6 7 7 8 10 11 10 10 9 9 8 7 6 5 4 3 3 2 2 1 1 1 1 2 2 3 3 4 4 3 3 4 5 5 5 6 7 7 7 7 9 10 10 10 11 12 12 12 11 11 12 12 12 12 11 11 6 4 7 6 8 8 5 8 13 12 14 19 24 27 29 29 31 28 23 22 23 24 24 25 25
4 4 4 4 4 4 5 5 6 7 8 9 10 10 9 8 8 7 6 6 5 4 3 3 2 1 1 0 0 1 2 2 2 3 4 5 5 5 6 5 6 6 6 6 6 7 8 8 9 10 11 11 11 11 11 10 10 11 11 12 13 13 12 10 10 12 10 10 9 4 5 10 16 23 26 27 28 28 27 30 29 24 22 23 23 24 25 25
4 4 4 3 3 4 4 4 5 6 7 8 9 9 9 8 7 6 5 5 4 4 3 3 2 1 1 0 1 1 1 2 2 3 4 5 6 6 6 6 7 6 6 7 7 7 7 7 10 11 10 8 7 5 6 8 10 12 12 12 13 13 13 13 13 13 11 10 8 6 7 16 22 26 28 27 26 25 25 28 28 25 23 22 23 24 24 25
4 4 4 3 3 3 3 3 4 5 6 7 8 8 8 7 7 6 5 4 4 3 3 3 2 1 0 0 1 1 1 2 2 3 4 5 6 6 7 7 7 7 7 7 8 8 9 9 9 8 4 3 5 7 10 13 15 16 16 15 15 15 15 13 13 13 11 11 12 11 14 23 23 20 21 22 22 23 23 23 25 24 22 21 23 23 23 24
4 4 4 3 2 3 3 3 3 3 4 5 6 7 7 7 6 5 5 4 3 3 3 3 2 2 1 1 2 2 2 2 3 3 4 5 6 6 8 8 8 9 8 8 9 10 10 10 10 10 9 10 12 14 17 18 19 19 18 18 18 18 18 17 16 16 13 15 20 18 20 25 23 17 17 17 18 20 21 21 23 21 19 21 24 24 24 24
4 4 4 3 3 4 3 2 2 2 3 3 4 5 6 6 6 5 4 3 2 2 2 2 2 2 2 2 3 3 3 3 4 4 5 6 6 7 8 8 9 9 9 10 10 10 11 12 12 11 12 13 14 16 18 19 19 19 19 20 20 19 21 21 20 19 17 17 20 21 23 27 24 19 18 18 19 21 22 23 23 20 19 21 24 25 24 24
5 5 4 4 4 4 3 2 2 1 1 2 3 3 4 5 5 5 4 3 2 1 1 2 2 3 3 3 4 4 5 5 5 5 6 6 7 7 8 9 9 9 10 11 11 11 14 14 12 12 12 12 15 17 19 19 19 19 18 17 19 20 23 24 22 22 21 21 21 23 28 28 23 19 20 22 23 24 25 24 23 21 21 23 25 25 24 23
7 6 5 5 5 5 4 3 3 2 1 1 1 1 2 3 3 4 4 3 3 2 2 2 2 3 4 4 4 5 5 6 6 6 7 8 8 8 9 9 9 9 10 11 12 12 13 13 14 15 15 14 16 17 17 18 19 20 20 19 19 21 22 23 21 20 21 22 21 23 26 23 19 18 22 24 24 26 25 23 22 21 22 25 26 25 23 23
9 8 7 7 6 6 5 5 4 3 3 2 2 2 1 1 1 2 2 3 3 2 2 3 3 4 4 5 5 5 5 6 7 7 8 9 9 9 9 9 9 10 10 11 12 12 13 15 16 18 20 19 15 14 15 17 20 24 24 18 14 15 18 19 17 16 18 19 19 21 23 21 17 18 23 25 26 26 24 23 21 20 23 25 24 22 21 23
11 10 10 9 8 8 7 6 6 5 4 4 4 4 4 3 3 3 3 2 2 2 3 4 4 5 5 6 6 6 6 7 7 8 9 10 10 10 10 10 11 12 11 12 13 13 14 16 16 19 22 21 16 16 18 21 26 27 18 7 8 14 16 14 12 12 14 16 18 20 20 19 17 19 23 25 25 25 23 22 21 20 22 23 22 21 21 23
12 12 11 11 11 10 9 8 8 7 6 6 6 6 6 6 5 5 5 4 3 3 4 5 5 6 6 7 8 8 8 8 8 9 10 11 11 11 12 12 13 13 13 12 13 14 15 17 17 17 19 21 19 18 22 26 24 15 6 8 20 22 15 11 11 11 13 15 18 19 18 17 18 21 23 23 23 22 21 20 20 20 20 20 20 21 22 24
Wind_Direction
81 82 85 89 91 93 97 101 104 105 107 107 106 104 103 103 100 97 95 95 97 97 96 94 93 92 90 90 90 91 89 87 93 106 111 100 91 91 92 92 93 94 94 95 96 94 98 104 106 106 105 105 105 106 104 102 97 106 124 100 96 103 101 100 101 94 85 69 64 61 59 60 50 38 32 29 32 30 25 20 14 12 13 12 8 4 358 354
77 76 78 86 93 97 100 104 108 107 105 104 103 103 101 101 99 98 97 98 101 101 99 95 93 90 90 91 91 93 91 90 105 109 98 90 90 93 93 94 96 96 95 97 97 95 97 101 102 99 98 99 99 97 93 92 90 102 112 96 97 105 103 102 98 92 83 64 57 58 56 57 50 36 31 32 34 30 25 20 11 12 11 6 3 357 352 349
71 71 73 79 90 98 102 104 106 106 104 100 96 94 94 95 97 97 97 96 98 101 99 95 92 91 92 94 96 98 95 99 108 95 88 90 93 94 95 97 98 100 100 101 100 99 100 99 94 91 98 102 95 88 88 93 97 104 101 93 97 104 102 98 89 83 81 68 56 55 57 55 47 37 33 32 34 30 23 16 11 10 5 359 357 351 349 347
65 67 70 75 87 98 102 102 101 100 100 99 96 91 89 88 88 89 90 93 98 99 98 96 94 95 97 99 101 99 98 103 95 87 87 91 92 94 96 97 100 101 100 101 102 102 103 98 90 92 109 100 91 90 93 98 106 107 96 90 93 94 95 94 89 79 75 70 59 51 54 50 41 39 34 34 36 31 20 14 12 7 1 359 356 351 348 344
67 68 73 78 88 99 103 103 100 98 97 97 96 92 90 88 84 82 82 86 94 98 97 97 97 97 96 100 102 99 102 99 87 87 90 90 92 94 95 95 98 98 98 102 103 102 104 97 93 106 109 92 92 102 102 101 107 104 95 91 91 89 89 92 92 85 75 68 60 50 51 48 45 46 36 38 38 29 23 18 15 9 5 2 357 352 346 343
74 76 80 86 94 102 107 107 106 103 99 96 93 92 91 90 87 82 81 80 85 97 101 101 100 98 98 102 104 105 107 98 90 92 92 90 92 93 94 94 95 97 100 102 101 104 102 93 93 108 98 92 101 106 102 103 101 95 96 96 96 96 93 89 88 85 79 70 62 52 50 48 47 48 38 42 41 29 29 23 20 13 8 5 359 354 349 349
80 81 85 93 101 108 112 114 113 108 103 99 94 92 91 92 94 89 87 85 86 93 99 100 99 101 104 99 96 106 109 101 97 97 95 95 93 92 94 94 95 97 101 103 101 99 89 89 100 99 95 99 104 98 91 97 97 95 99 101 103 105 98 90 86 82 82 77 71 59 50 48 46 50 45 46 42 31 31 26 23 15 9 8 4 1 356 354
80 82 86 94 104 113 119 120 120 115 111 105 98 95 91 91 93 92 92 95 97 98 97 98 99 102 102 96 96 106 103 98 98 98 98 97 95 95 96 96 96 91 97 103 96 87 82 92 118 103 103 105 101 98 92 91 95 94 99 106 109 108 99 90 87 83 86 86 81 68 51 49 51 53 50 48 40 31 31 28 23 13 9 10 7 4 359 358
78 82 87 94 103 113 121 125 124 120 116 110 104 99 94 94 95 96 100 105 108 107 104 104 102 99 96 98 107 108 96 94 97 97 97 96 93 94 98 100 95 83 77 83 81 81 92 120 118 106 125 109 99 101 99 93 96 96 103 111 112 109 101 93 88 84 85 84 79 73 58 50 55 52 48 45 34 29 28 25 20 12 8 8 7 6 4 6
77 81 87 93 101 111 118 122 121 120 119 114 108 102 100 101 101 100 102 104 108 109 108 105 100 98 97 100 108 102 93 92 93 90 90 90 85 82 89 90 84 77 63 65 78 85 96 101 98 103 114 105 101 101 101 101 102 102 105 110 110 104 99 95 92 88 85 77 70 71 65 53 52 48 43 39 29 26 25 19 14 8 6 5 8 9 10 10
76 79 86 92 98 106 110 111 111 113 114 112 108 104 102 103 104 103 99 95 94 97 100 102 103 103 96 95 102 97 93 91 89 86 84 81 78 77 81 79 76 78 67 60 82 87 89 92 94 101 101 101 106 107 106 103 101 100 99 104 105 96 92 95 98 94 86 76 68 68 67 58 51 44 37 33 26 24 21 14 7 4 4 6 10 13 13 11
78 80 85 91 96 100 102 102 102 104 107 109 106 103 99 96 98 99 95 91 89 94 101 104 106 99 89 94 106 97 94 94 88 83 79 76 78 79 77 74 71 76 72 58 75 84 93 94 81 89 103 108 114 117 110 104 103 101 97 94 95 95 96 98 98 92 83 74 69 62 58 55 49 41 35 31 26 23 18 10 4 2 5 8 11 13 13 11
80 82 84 90 95 98 100 100 99 99 101 101 101 100 98 93 92 96 100 102 103 103 98 93 92 92 96 109 105 96 96 94 84 80 80 78 78 77 75 74 71 75 75 69 85 92 97 91 77 83 102 109 125 119 108 106 108 103 100 93 92 98 99 97 97 95 89 81 70 57 52 50 44 38 35 31 27 23 16 10 7 6 9 10 11 12 11 9
83 84 85 88 93 98 101 102 101 99 98 98 100 102 103 102 100 101 104 102 98 94 88 87 86 89 104 108 99 97 97 90 84 86 88 81 76 76 78 76 76 79 78 83 100 98 89 82 81 94 94 95 108 108 103 104 105 100 98 95 93 99 96 95 101 102 101 92 72 60 57 46 38 34 32 29 26 22 17 14 14 13 12 11 12 11 8 6
86 86 87 91 94 98 101 104 104 102 100 102 105 107 108 109 105 100 97 95 92 88 88 92 91 91 102 100 97 98 94 88 87 90 86 81 78 81 82 78 82 85 83 93 100 96 86 78 81 96 94 95 95 95 95 97 99 96 95 98 97 96 95 95 100 106 107 92 68 61 56 40 32 28 26 25 23 22 20 18 19 17 13 13 13 10 7 5
88 89 90 92 96 100 103 106 109 108 107 106 107 109 108 107 106 103 98 95 94 89 86 89 93 99 103 96 96 96 91 89 92 92 87 83 82 82 83 83 85 85 87 92 91 91 88 87 96 94 91 92 88 87 89 89 92 90 89 98 97 91 93 94 100 106 101 87 70 59 53 38 28 22 19 19 20 22 21 20 19 17 14 12 11 9 7 4
89 92 93 92 94 98 101 103 106 108 108 107 107 106 105 103 100 99 96 92 89 90 90 92 97 101 100 98 97 93 92 94 94 93 90 87 84 83 87 86 82 83 85 87 92 92 90 94 101 92 88 88 86 84 83 87 92 91 90 91 89 87 87 89 99 100 90 78 61 48 41 32 23 17 15 14 15 18 19 19 17 15 12 10 9 7 5 2
92 92 94 95 94 94 96 97 97 97 98 99 100 100 100 98 94 93 93 94 94 95 96 96 97 98 97 97 96 96 99 98 94 92 90 88 85 85 87 84 82 85 84 86 91 88 89 95 92 89 89 87 83 77 80 92 93 95 97 87 84 81 70 64 65 63 62 53 30 17 15 13 8 8 10 11 11 12 15 16 14 13 10 7 6 4 3 0
97 94 94 96 97 97 96 95 93 92 92 93 94 95 94 94 96 96 94 98 102 99 95 93 94 102 102 99 100 103 102 98 95 93 90 90 90 90 87 85 86 87 85 88 90 87 89 93 89 89 90 87 83 79 81 89 90 94 94 83 80 73 61 50 38 20 8 3 352 345 345 345 347 354 359 3 6 7 9 10 10 10 7 5 4 2 0 358
95 96 94 94 95 98 101 101 99 95 93 92 92 92 89 83 82 93 100 106 105 99 96 93 93 99 102 102 104 102 99 100 101 100 97 95 94 90 87 90 91 89 86 89 92 91 88 89 93 92 90 88 85 83 82 80 85 86 83 80 69 61 53 40 27 16 357 336 325 323 326 330 332 338 347 353 358 1 4 5 5 6 4 3 2 360 359 356
89 91 92 93 92 92 95 98 98 96 91 86 85 83 81 77 79 97 109 110 100 96 94 92 92 95 98 102 103 99 100 104 105 105 102 99 94 88 88 89 87 87 90 91 88 90 91 93 96 93 89 86 82 82 80 74 74 71 74 68 53 49 41 30 18 10 360 344 327 313 312 322 326 330 337 342 347 353 358 0 2 2 1 360 360 359 358 356
83 84 87 89 88 87 85 85 86 88 86 80 77 77 81 86 93 101 119 113 100 96 92 90 89 92 95 98 101 105 107 108 109 109 105 100 95 92 97 88 78 81 95 98 80 85 99 101 94 90 86 85 82 79 78 75 63 58 62 47 36 31 20 16 5 358 354 347 338 324 316 310 319 332 335 336 341 347 351 354 358 360 359 357 357 358 356 356
79 81 81 81 83 84 83 80 78 80 82 79 78 83 88 93 95 97 121 118 100 92 88 87 87 89 93 97 106 112 109 108 114 113 108 102 93 96 105 91 76 83 113 110 84 82 102 100 91 87 84 84 84 81 80 79 59 48 52 41 31 13 358 354 347 343 340 339 337 333 327 308 318 343 340 337 338 343 347 348 351 355 357 356 353 355 355 354
77 79 79 80 82 87 90 86 81 80 83 86 90 93 95 97 101 103 113 107 94 89 88 87 89 91 94 102 108 106 104 113 126 120 112 104 96 98 97 88 84 95 116 108 83 91 109 100 92 90 87 83 83 84 77 73 65 43 37 33 23 7 350 336 334 332 331 332 332 336 338 327 342 347 344 345 341 341 345 343 345 348 353 355 350 350 351 349
74 78 80 82 82 88 93 91 90 85 88 99 104 101 102 105 104 99 99 97 88 86 89 89 91 93 95 100 102 104 114 131 133 120 111 107 109 102 89 85 89 88 92 92 92 109 109 99 94 92 87 77 75 73 62 56 56 35 14 9 360 348 343 333 328 326 324 323 329 340 350 344 339 343 344 351 347 341 343 340 341 343 346 351 349 347 347 346
73 77 79 79 79 81 83 85 91 90 100 113 113 110 114 112 101 85 83 88 77 73 87 94 92 90 94 103 105 111 124 135 132 120 112 113 114 104 93 88 87 87 91 98 103 101 97 95 91 86 80 73 65 58 49 38 26 360 318 332 327 318 322 320 322 324 318 318 325 336 345 323 330 348 346 351 353 342 341 340 339 341 342 345 347 345 344 345
73 75 76 75 75 75 77 81 84 89 113 140 146 143 140 133 114 40 50 73 56 54 75 85 86 92 109 122 116 117 127 127 129 123 116 121 121 111 101 90 90 99 101 101 96 85 84 90 85 79 75 67 56 48 38 24 15 348 318 314 305 305 307 305 313 317 313 317 318 322 330 316 317 339 340 344 352 344 339 338 338 340 339 340 343 342 342 343
76 76 77 77 76 74 77 79 80 84 84 123 166 183 194 217 263 286 341 70 25 36 71 76 89 102 119 134 127 123 129 125 124 126 123 129 128 115 109 105 100 104 100 78 93 100 90 78 73 71 66 55 47 41 30 26 20 358 339 317 297 295 295 295 302 306 310 316 308 306 328 320 308 325 337 338 344 342 336 335 335 336 336 337 339 339 340 342
82 79 79 80 78 75 76 77 79 80 72 80 119 184 199 203 246 225 106 96 90 107 101 90 98 105 108 124 123 118 123 123 128 134 133 137 133 112 108 116 103 90 83 81 95 107 86 67 63 59 55 47 38 34 28 27 18 6 355 330 306 291 288 291 293 297 305 307 288 290 327 333 314 318 334 334 337 337 332 331 331 332 333 334 335 337 339 340
92 87 82 80 80 77 76 76 76 75 72 66 66 102 159 162 154 138 92 122 154 139 129 117 109 109 107 110 112 108 110 117 130 141 142 148 140 114 108 112 103 94 90 92 96 93 74 63 54 49 48 32 19 23 25 22 12 4 357 344 328 304 293 287 285 294 305 301 266 274 317 331 319 314 327 329 332 332 328 328 328 328 331 331 332 335 338 340
101 96 86 79 80 78 75 74 71 69 68 61 61 72 103 143 171 152 113 143 151 143 142 135 124 121 111 101 102 107 111 118 129 140 138 124 110 116 117 112 108 100 94 102 97 77 70 59 49 44 33 12 2 2 7 9 7 3 358 351 337 318 305 289 283 292 298 295 281 283 312 315 283 292 321 323 326 328 325 325 325 326 329 330 330 333 337 339
102 102 95 85 79 74 72 71 66 64 60 56 57 53 73 131 71 129 141 146 149 150 148 139 135 122 106 100 101 108 114 120 122 118 111 97 104 123 135 137 128 110 83 112 115 92 68 40 31 23 13 9 359 355 355 354 360 360 357 355 344 334 338 309 279 274 253 265 285 293 311 303 279 294 317 319 326 329 327 326 324 326 330 330 330 333 338 339
95 100 98 88 78 72 70 68 61 59 56 49 47 40 56 96 88 134 147 150 158 161 154 138 133 115 103 103 107 114 115 115 115 104 93 88 99 112 182 193 202 254 239 150 154 148 28 340 331 330 347 358 354 356 357 347 350 354 354 356 354 16 19 320 281 305 287 283 295 298 303 295 290 310 317 316 331 336 334 333 330 332 335 333 332 336 339 339
84 88 89 85 80 74 70 66 57 52 53 48 41 34 69 102 124 147 154 156 155 155 149 134 123 108 108 114 121 128 121 114 109 95 87 77 77 74 310 209 229 246 199 176 180 241 284 298 326 328 332 344 343 348 352 343 337 342 347 351 351 18 23 282 277 305 303 305 303 295 289 285 302 316 312 313 336 345 342 340 339 341 340 336 335 338 340 339
77 78 82 82 81 75 67 62 57 49 48 49 42 37 92 117 137 150 151 148 149 148 141 128 113 102 108 119 127 128 119 116 102 80 75 69 65 45 287 211 231 207 198 223 248 285 283 263 303 328 329 334 333 333 342 346 339 333 339 344 342 330 299 290 292 290 300 311 304 283 272 291 306 309 304 312 336 346 349 346 345 347 343 338 338 340 340 338
76 75 81 84 79 75 64 58 58 53 47 45 44 57 94 118 134 141 140 143 144 141 134 121 105 99 104 108 114 112 119 120 106 90 82 67 48 359 329 333 301 230 249 271 267 277 283 271 285 307 313 317 322 321 328 340 341 332 334 339 338 326 313 313 304 301 317 321 291 283 285 301 315 313 307 321 333 343 350 350 349 349 345 342 341 340 338 337
78 78 83 87 80 73 63 54 56 56 49 48 61 79 94 113 127 133 137 141 142 138 128 111 98 94 87 67 73 109 168 172 200 254 270 20 11 350 318 307 307 284 282 276 270 287 281 269 278 294 301 303 309 311 311 320 326 327 331 336 337 332 325 332 318 317 358 5 281 288 288 303 316 309 314 328 332 340 347 351 351 349 347 345 344 341 339 337
78 79 84 89 83 75 66 58 57 58 54 51 65 82 95 112 123 128 133 136 137 135 120 95 89 89 74 51 53 76 244 291 292 288 284 262 291 320 307 292 287 290 292 275 291 305 286 270 279 288 294 299 303 304 301 304 311 318 323 328 336 338 327 340 336 318 353 329 295 297 294 307 316 301 318 330 331 337 344 348 350 348 347 347 345 344 341 338
79 83 88 89 83 75 70 64 59 57 55 53 63 82 96 109 118 125 127 125 125 122 107 91 93 100 88 55 39 12 312 326 326 315 312 295 286 294 300 295 283 284 285 280 292 305 293 284 290 293 297 300 302 301 298 302 306 307 311 320 331 334 321 328 323 266 274 285 306 312 306 320 332 317 321 333 333 337 340 342 346 346 346 348 346 345 344 340
86 91 91 86 81 76 73 69 62 56 54 57 68 84 97 105 113 119 120 118 116 111 107 106 107 114 101 55 37 359 315 313 325 319 313 321 310 295 292 288 285 289 286 283 291 297 292 285 281 292 300 301 302 301 300 303 303 302 305 312 319 323 322 324 308 279 268 245 220 347 302 317 334 326 324 335 336 339 338 336 341 344 344 347 347 346 347 345
98 98 95 86 81 81 77 72 65 57 54 62 70 82 94 103 108 111 113 110 108 107 111 114 113 123 120 66 36 9 319 301 317 315 307 317 315 306 301 292 290 291 288 289 292 295 299 293 285 286 293 299 301 299 298 298 297 299 303 306 309 312 314 322 307 283 264 252 254 209 287 313 339 347 331 333 335 338 336 331 335 342 343 345 346 347 348 346
108 102 98 89 83 85 84 78 69 59 57 65 71 78 89 101 106 108 109 104 100 98 100 106 108 122 128 76 37 360 315 299 313 311 308 314 309 305 307 301 293 290 291 292 290 295 302 300 295 290 291 297 298 295 297 297 295 297 300 303 305 304 303 302 284 284 280 270 267 242 270 309 346 349 333 332 335 335 331 325 329 340 342 343 344 346 345 343
125 113 106 96 89 90 89 83 73 64 61 66 71 75 83 96 104 108 108 102 97 92 90 96 98 106 112 76 351 341 316 293 297 302 307 312 311 311 310 307 303 296 293 292 294 301 305 303 307 307 303 298 293 291 295 299 300 299 302 305 303 301 301 294 285 289 287 271 263 237 257 302 336 337 331 333 334 331 324 320 327 337 339 340 341 341 339 338
145 134 124 111 99 98 99 93 81 68 64 68 70 72 78 88 97 103 108 103 92 85 84 82 84 108 120 140 310 341 328 295 296 299 303 311 315 315 314 312 309 301 296 297 297 302 306 306 314 321 325 318 308 303 304 308 307 304 306 308 305 304 302 295 292 291 285 273 256 204 257 309 332 335 332 334 330 323 320 320 326 332 334 337 338 336 334 333
164 157 146 133 117 115 114 108 94 76 70 69 69 70 73 81 89 94 104 108 91 78 70 55 60 86 82 322 302 327 320 297 298 299 305 315 317 316 316 316 313 308 305 300 296 299 300 302 310 316 318 301 298 301 304 306 304 303 306 307 305 303 297 293 289 283 279 280 267 242 276 314 337 340 330 326 317 314 318 318 322 326 329 335 337 335 332 330
179 175 169 160 147 141 131 119 112 90 77 73 70 71 71 75 82 85 95 106 91 74 59 40 35 24 360 323 312 323 315 298 292 292 305 313 315 315 316 317 316 315 312 306 302 300 297 299 304 299 285 282 286 289 295 298 298 300 304 303 302 301 297 291 279 275 281 286 286 287 297 315 337 344 326 319 314 316 320 320 322 324 324 331 336 335 332 331
196 187 183 182 175 168 157 139 145 112 82 77 73 73 71 69 73 75 81 88 82 70 46 29 22 10 354 330 319 317 314 308 292 284 295 305 309 310 312 315 316 314 313 311 308 304 303 305 305 302 299 297 295 295 297 298 297 300 301 300 300 298 293 289 282 287 292 282 289 310 312 314 333 344 331 329 328 326 328 327 327 324 320 328 335 335 333 333
215 209 204 196 185 183 186 176 176 184 103 76 67 71 71 66 66 66 66 62 57 48 20 5 3 360 353 339 325 316 314 315 304 293 293 298 303 306 308 313 314 311 312 313 312 311 309 309 310 309 307 305 304 305 304 303 302 302 301 299 298 293 290 289 290 295 290 278 290 311 311 315 335 340 333 335 334 332 335 333 330 326 320 325 332 335 336 335
227 225 220 212 202 200 205 201 202 220 235 270 355 42 59 60 60 55 53 46 33 21 353 337 333 340 344 339 328 319 315 315 311 302 294 294 300 303 307 311 311 310 311 311 314 315 310 310 313 312 309 309 310 308 306 307 307 306 305 302 298 294 290 289 291 291 285 286 300 308 308 322 340 333 331 338 335 335 337 333 330 326 318 323 332 336 336 335
229 230 229 227 222 218 215 213 217 224 232 257 278 284 298 317 3 19 27 25 15 3 335 318 313 318 327 329 325 318 312 309 307 303 299 298 299 301 305 307 306 307 309 309 312 311 306 307 311 311 311 315 318 314 311 312 310 310 309 304 301 302 295 288 289 287 285 294 308 308 310 326 336 328 331 337 335 337 337 332 328 322 318 325 334 336 335 335
230 231 232 234 232 229 226 224 226 231 235 248 261 269 276 278 286 300 314 328 337 333 324 316 308 309 312 314 316 314 311 308 306 306 305 301 298 298 297 296 297 300 302 304 306 305 304 305 308 311 312 315 320 319 316 316 314 313 310 301 318 323 308 290 287 290 290 299 309 310 315 326 331 330 333 336 336 338 337 331 327 323 324 332 337 336 335 336
234 234 234 236 237 236 235 235 235 237 240 248 256 262 269 274 277 282 290 296 300 301 305 306 305 304 302 303 307 307 306 308 307 306 305 303 300 296 291 290 292 294 296 298 299 300 301 302 305 309 308 309 316 318 317 317 316 314 311 317 322 322 307 285 292 300 300 301 306 312 321 326 327 332 336 338 338 338 335 330 329 333 339 341 340 340 339 338
Height
3151 3151 3151 3150 3150 3150 3151 3151 3151 3151 3151 3151 3151 3150 3150 3150 3150 3150 3150 3150 3150 3150 3150 3149 3149 3148 3148 3148 3147 3147 3147 3147 3148 3148 3149 3148 3146 3146 3147 3148 3149 3150 3151 3152 3152 3153 3155 3156 3157 3158 3158 3158 3158 3159 3158 3159 3160 3160 3162 3161 3160 3164 3166 3167 3169 3169 3171 3171 3171 3170 3170 3170 3170 3171 3171 3171 3170 3170 3169 3169 3168 3168 3167 3166 3165 3165 3164 3163
3152 3152 3152 3152 3152 3152 3152 3152 3152 3152 3152 3152 3152 3152 3151 3151 3151 3151 3151 3151 3151 3151 3151 3151 3150 3150 3149 3149 3149 3149 3148 3150 3153 3151 3148 3147 3148 3149 3149 3150 3152 3152 3153 3154 3154 3155 3157 3158 3158 3158 3159 3159 3160 3160 3160 3160 3161 3162 3164 3162 3162 3165 3167 3168 3170 3170 3171 3172 3171 3171 3171 3171 3171 3172 3171 3171 3170 3170 3169 3169 3169 3168 3167 3166 3165 3165 3164 3163
3153 3153 3153 3153 3152 3152 3153 3153 3153 3153 3153 3153 3153 3152 3152 3152 3152 3152 3152 3152 3153 3153 3152 3152 3152 3151 3151 3151 3151 3151 3150 3153 3155 3151 3149 3150 3151 3151 3152 3153 3154 3154 3155 3156 3156 3156 3158 3159 3159 3159 3161 3161 3161 3162 3162 3162 3163 3165 3165 3162 3164 3167 3168 3169 3170 3171 3171 3172 3172 3172 3172 3172 3172 3172 3172 3171 3171 3170 3170 3170 3169 3168 3167 3167 3166 3165 3164 3163
3154 3154 3153 3153 3153 3153 3153 3153 3153 3153 3154 3154 3154 3153 3153 3153 3153 3153 3153 3154 3154 3154 3153 3153 3153 3153 3153 3153 3154 3153 3152 3156 3155 3151 3153 3154 3154 3154 3155 3156 3156 3156 3156 3157 3158 3158 3159 3160 3160 3161 3163 3162 3162 3163 3164 3164 3165 3166 3165 3164 3166 3169 3169 3169 3171 3172 3172 3172 3173 3173 3173 3173 3173 3173 3173 3172 3171 3171 3171 3170 3170 3169 3168 3167 3166 3165 3164 3163
3155 3155 3154 3154 3154 3154 3154 3154 3154 3154 3154 3154 3154 3154 3155 3155 3155 3155 3155 3155 3155 3155 3155 3155 3155 3155 3155 3155 3156 3155 3155 3157 3156 3155 3156 3157 3157 3157 3157 3158 3158 3158 3158 3159 3160 3160 3161 3161 3162 3164 3164 3162 3163 3165 3165 3166 3167 3166 3166 3166 3168 3171 3171 3171 3172 3173 3173 3173 3174 3174 3174 3174 3174 3174 3173 3172 3172 3172 3171 3171 3170 3169 3168 3167 3166 3165 3164 3163
3157 3156 3156 3155 3155 3155 3155 3155 3155 3155 3156 3155 3155 3156 3156 3156 3156 3156 3156 3156 3156 3157 3157 3156 3156 3156 3157 3158 3158 3158 3158 3158 3158 3158 3159 3159 3160 3160 3160 3160 3160 3160 3161 3161 3162 3162 3162 3162 3164 3166 3164 3163 3166 3167 3167 3168 3169 3168 3167 3168 3170 3172 3173 3172 3173 3174 3174 3174 3175 3175 3175 3175 3175 3174 3174 3173 3172 3172 3172 3171 3170 3169 3168 3167 3166 3165 3164 3163
3158 3158 3157 3157 3156 3156 3156 3156 3156 3157 3157 3157 3157 3157 3157 3158 3158 3158 3158 3158 3158 3158 3158 3158 3157 3157 3158 3158 3160 3160 3159 3158 3160 3161 3161 3162 3162 3162 3162 3162 3163 3163 3163 3163 3163 3164 3163 3164 3166 3167 3166 3165 3167 3168 3168 3169 3170 3169 3168 3170 3172 3173 3174 3173 3174 3175 3175 3175 3176 3176 3176 3176 3175 3174 3174 3173 3173 3173 3172 3171 3170 3170 3168 3167 3166 3165 3164 3163
3159 3159 3158 3158 3158 3158 3158 3158 3158 3158 3158 3158 3159 3159 3159 3159 3159 3159 3160 3160 3160 3160 3160 3160 3160 3161 3159 3159 3162 3163 3161 3160 3161 3163 3163 3164 3164 3164 3164 3164 3164 3165 3165 3165 3164 3164 3164 3166 3167 3168 3167 3167 3168 3168 3170 3171 3171 3171 3170 3172 3173 3174 3175 3174 3175 3176 3176 3176 3176 3176 3176 3176 3176 3175 3174 3174 3174 3173 3172 3171 3170 3170 3168 3167 3166 3165 3164 3163
3160 3160 3159 3159 3159 3159 3159 3159 3160 3160 3160 3160 3160 3161 3161 3161 3161 3161 3162 3162 3162 3162 3162 3163 3162 3163 3162 3161 3164 3164 3163 3162 3164 3165 3165 3165 3166 3166 3166 3166 3165 3165 3167 3166 3164 3165 3166 3168 3168 3168 3169 3168 3169 3170 3171 3173 3173 3173 3173 3174 3175 3175 3175 3175 3176 3177 3177 3177 3177 3176 3177 3177 3176 3176 3175 3175 3174 3173 3172 3171 3170 3169 3168 3167 3166 3165 3164 3163
3161 3161 3160 3160 3160 3160 3160 3161 3161 3161 3161 3162 3162 3162 3163 3163 3163 3163 3164 3164 3164 3164 3164 3164 3164 3164 3164 3164 3165 3165 3165 3165 3166 3166 3167 3166 3166 3167 3167 3166 3166 3166 3167 3167 3167 3167 3168 3169 3169 3169 3170 3169 3170 3172 3173 3174 3174 3175 3175 3176 3176 3177 3176 3176 3177 3178 3178 3178 3178 3176 3177 3177 3177 3176 3176 3175 3174 3173 3172 3171 3170 3169 3168 3167 3166 3165 3164 3162
3163 3162 3162 3161 3161 3161 3162 3162 3162 3162 3163 3163 3163 3164 3164 3164 3165 3165 3165 3166 3166 3165 3165 3165 3165 3165 3165 3165 3166 3166 3167 3167 3167 3168 3168 3167 3167 3169 3168 3167 3168 3168 3169 3170 3170 3170 3170 3171 3171 3170 3171 3171 3172 3174 3175 3175 3176 3177 3178 3178 3178 3177 3178 3177 3178 3179 3179 3179 3178 3177 3178 3178 3177 3177 3176 3175 3174 3173 3172 3172 3171 3170 3169 3168 3166 3165 3164 3162
3164 3163 3163 3163 3163 3163 3163 3163 3163 3164 3164 3164 3165 3165 3165 3165 3166 3166 3166 3167 3167 3167 3167 3167 3166 3165 3165 3167 3168 3168 3168 3169 3169 3169 3169 3169 3170 3170 3170 3170 3170 3170 3170 3172 3172 3171 3172 3172 3172 3172 3172 3173 3174 3175 3176 3177 3178 3178 3179 3180 3179 3178 3179 3179 3179 3180 3180 3179 3179 3179 3179 3178 3178 3177 3176 3175 3175 3174 3173 3172 3171 3170 3169 3168 3167 3165 3164 3162
3165 3165 3164 3164 3164 3164 3164 3165 3165 3165 3165 3165 3165 3166 3166 3166 3167 3167 3167 3168 3168 3168 3168 3168 3167 3167 3167 3169 3170 3170 3171 3171 3170 3171 3172 3172 3173 3172 3172 3172 3173 3172 3172 3174 3174 3173 3174 3172 3173 3174 3173 3175 3176 3177 3177 3178 3179 3180 3180 3181 3180 3180 3180 3180 3181 3181 3180 3180 3180 3179 3179 3179 3178 3178 3177 3176 3175 3174 3174 3173 3171 3170 3169 3168 3167 3165 3164 3163
3167 3166 3166 3165 3166 3166 3166 3166 3166 3167 3167 3167 3167 3167 3167 3168 3168 3168 3169 3169 3169 3169 3168 3168 3169 3169 3169 3170 3171 3172 3172 3172 3172 3174 3174 3174 3175 3175 3175 3175 3175 3175 3175 3176 3175 3175 3174 3174 3175 3176 3175 3176 3177 3178 3178 3179 3180 3181 3182 3182 3182 3182 3182 3182 3182 3181 3181 3181 3180 3180 3180 3180 3179 3178 3177 3176 3176 3175 3174 3172 3171 3170 3169 3167 3166 3165 3163 3162
3168 3168 3168 3167 3168 3168 3168 3168 3168 3168 3168 3168 3169 3169 3169 3170 3170 3170 3170 3170 3170 3170 3170 3170 3170 3171 3172 3172 3173 3174 3174 3174 3175 3176 3176 3176 3177 3177 3177 3177 3177 3177 3177 3178 3177 3176 3175 3176 3178 3177 3176 3178 3179 3179 3180 3181 3182 3183 3183 3183 3183 3183 3183 3183 3183 3182 3182 3182 3181 3181 3180 3180 3180 3179 3178 3177 3176 3175 3173 3172 3171 3169 3168 3167 3166 3164 3163 3161
3170 3170 3170 3170 3170 3170 3170 3170 3170 3170 3170 3170 3170 3171 3171 3171 3171 3171 3171 3171 3171 3171 3172 3172 3171 3173 3174 3174 3175 3175 3175 3176 3177 3178 3178 3178 3179 3179 3179 3179 3179 3179 3179 3179 3179 3178 3177 3178 3180 3179 3178 3179 3180 3181 3181 3182 3183 3184 3184 3184 3184 3184 3184 3184 3184 3183 3183 3182 3182 3181 3181 3181 3180 3179 3179 3177 3176 3175 3173 3172 3171 3169 3168 3167 3166 3164 3163 3161
3172 3172 3172 3172 3171 3171 3171 3172 3172 3171 3171 3171 3171 3172 3172 3173 3172 3172 3172 3172 3172 3172 3173 3174 3174 3174 3175 3176 3177 3177 3178 3179 3179 3179 3180 3180 3180 3180 3180 3180 3181 3181 3181 3180 3180 3179 3178 3180 3181 3180 3179 3181 3182 3183 3183 3184 3185 3185 3186 3186 3186 3186 3185 3185 3185 3184 3184 3183 3182 3182 3181 3181 3180 3180 3179 3178 3176 3175 3173 3172 3171 3170 3169 3167 3166 3165 3163 3162
3174 3174 3174 3173 3173 3173 3173 3173 3173 3173 3173 3172 3173 3173 3174 3174 3174 3174 3173 3173 3174 3174 3175 3175 3176 3176 3177 3178 3179 3179 3180 3180 3181 3181 3181 3181 3182 3182 3182 3182 3182 3182 3182 3182 3182 3181 3180 3182 3182 3181 3181 3182 3183 3184 3185 3186 3186 3187 3187 3187 3187 3187 3186 3186 3186 3185 3184 3184 3183 3182 3182 3181 3181 3180 3179 3178 3176 3175 3173 3172 3171 3170 3168 3167 3166 3165 3163 3162
3175 3175 3175 3175 3175 3175 3175 3175 3175 3175 3174 3174 3174 3175 3175 3175 3175 3175 3175 3175 3176 3176 3176 3177 3177 3177 3179 3180 3180 3181 3181 3181 3182 3182 3183 3183 3183 3183 3183 3184 3184 3183 3183 3184 3183 3182 3183 3183 3183 3183 3183 3184 3185 3186 3187 3187 3188 3188 3188 3188 3188 3187 3187 3187 3186 3186 3185 3184 3184 3183 3182 3182 3181 3180 3179 3178 3177 3175 3174 3172 3171 3169 3168 3167 3166 3164 3163 3162
3177 3177 3177 3176 3176 3176 3176 3176 3176 3176 3176 3176 3176 3176 3176 3177 3177 3177 3177 3177 3177 3177 3178 3179 3179 3180 3180 3181 3182 3182 3182 3183 3184 3184 3184 3184 3184 3184 3184 3185 3185 3185 3185 3185 3185 3184 3185 3185 3185 3185 3185 3185 3186 3187 3188 3189 3189 3189 3189 3189 3189 3188 3187 3187 3187 3186 3186 3185 3184 3183 3182 3182 3181 3180 3179 3178 3177 3175 3174 3172 3171 3169 3168 3167 3165 3164 3163 3161
3178 3178 3178 3178 3178 3178 3178 3178 3178 3177 3177 3177 3178 3178 3177 3178 3179 3179 3179 3180 3179 3179 3180 3181 3181 3182 3182 3183 3183 3183 3184 3185 3185 3185 3185 3185 3185 3186 3186 3186 3186 3186 3186 3187 3186 3185 3186 3187 3187 3186 3186 3187 3188 3189 3189 3190 3190 3190 3189 3189 3189 3188 3188 3187 3187 3187 3186 3185 3184 3183 3182 3182 3181 3180 3179 3178 3176 3175 3174 3172 3171 3169 3168 3166 3165 3164 3162 3161
3178 3178 3178 3178 3179 3179 3179 3179 3179 3179 3178 3178 3179 3179 3179 3180 3181 3181 3181 3181 3181 3181 3182 3183 3183 3184 3184 3184 3185 3185 3185 3186 3186 3186 3186 3186 3187 3187 3187 3187 3187 3187 3187 3188 3188 3187 3188 3189 3188 3187 3188 3188 3189 3190 3190 3191 3191 3190 3190 3189 3189 3189 3188 3188 3188 3187 3186 3185 3184 3183 3182 3181 3180 3179 3178 3177 3176 3175 3173 3172 3171 3169 3168 3166 3165 3163 3162 3160
3180 3180 3179 3179 3180 3180 3180 3180 3180 3180 3180 3180 3180 3181 3181 3182 3182 3183 3183 3182 3182 3183 3184 3184 3185 3186 3186 3186 3186 3186 3186 3187 3187 3187 3187 3187 3188 3188 3188 3188 3188 3188 3188 3189 3189 3189 3190 3190 3189 3188 3189 3190 3190 3191 3191 3191 3191 3191 3190 3190 3189 3189 3189 3188 3188 3187 3186 3185 3184 3182 3180 3179 3179 3178 3177 3176 3175 3174 3173 3172 3170 3169 3167 3166 3164 3163 3161 3160
3181 3181 3181 3181 3181 3181 3182 3182 3182 3182 3181 3181 3182 3183 3183 3184 3184 3185 3185 3184 3184 3185 3186 3187 3187 3187 3187 3188 3188 3187 3187 3188 3188 3188 3188 3188 3189 3189 3189 3189 3189 3189 3189 3190 3190 3190 3191 3191 3190 3190 3191 3191 3191 3191 3191 3191 3191 3191 3191 3190 3190 3189 3189 3188 3188 3187 3186 3184 3183 3181 3179 3177 3177 3177 3176 3175 3175 3174 3173 3171 3170 3169 3167 3165 3164 3162 3160 3159
3182 3182 3182 3182 3182 3183 3183 3183 3183 3183 3183 3183 3185 3185 3185 3186 3186 3186 3186 3185 3186 3187 3188 3189 3189 3189 3189 3189 3189 3188 3189 3189 3189 3189 3189 3189 3190 3190 3190 3190 3190 3190 3190 3191 3191 3191 3192 3192 3191 3191 3191 3192 3192 3192 3191 3191 3191 3191 3191 3190 3190 3189 3189 3188 3187 3186 3185 3184 3182 3181 3179 3177 3176 3176 3175 3175 3174 3173 3172 3171 3170 3168 3166 3164 3163 3161 3159 3157
3184 3184 3184 3184 3184 3184 3184 3184 3184 3184 3185 3185 3186 3186 3187 3187 3187 3187 3187 3186 3188 3189 3189 3190 3190 3190 3190 3190 3190 3190 3190 3190 3191 3190 3190 3191 3191 3191 3191 3191 3191 3191 3191 3192 3193 3193 3193 3193 3192 3192 3192 3192 3192 3192 3192 3192 3191 3191 3190 3190 3190 3189 3189 3188 3187 3186 3184 3183 3181 3181 3180 3178 3175 3175 3175 3174 3173 3172 3171 3170 3169 3167 3165 3163 3161 3160 3158 3156
3185 3185 3185 3185 3185 3185 3185 3185 3185 3185 3186 3186 3187 3187 3187 3187 3187 3188 3188 3187 3189 3191 3191 3191 3190 3191 3191 3191 3191 3191 3191 3192 3192 3192 3192 3192 3192 3192 3192 3192 3192 3193 3193 3193 3193 3194 3194 3194 3193 3193 3193 3193 3192 3192 3192 3192 3191 3191 3190 3190 3189 3189 3188 3187 3186 3185 3184 3182 3181 3180 3181 3179 3175 3175 3174 3173 3172 3171 3170 3169 3167 3166 3164 3162 3160 3158 3157 3155
3186 3186 3186 3186 3186 3186 3186 3186 3186 3187 3187 3187 3187 3187 3188 3188 3188 3188 3188 3189 3192 3192 3192 3192 3191 3192 3192 3191 3192 3192 3192 3193 3193 3193 3193 3192 3192 3193 3193 3193 3193 3193 3194 3194 3194 3195 3195 3194 3194 3194 3193 3193 3193 3193 3193 3192 3192 3191 3191 3190 3189 3188 3188 3187 3186 3185 3183 3182 3181 3180 3180 3178 3175 3174 3173 3172 3171 3170 3168 3167 3166 3164 3163 3161 3159 3158 3156 3154
3187 3187 3187 3188 3187 3187 3187 3187 3187 3187 3187 3187 3187 3188 3188 3188 3188 3188 3187 3190 3193 3193 3193 3193 3192 3192 3192 3192 3193 3193 3193 3194 3194 3193 3193 3193 3193 3193 3194 3194 3194 3194 3194 3194 3194 3195 3195 3195 3195 3194 3194 3194 3194 3194 3193 3193 3192 3191 3191 3189 3189 3188 3187 3186 3185 3184 3183 3181 3180 3179 3179 3178 3175 3172 3172 3171 3170 3168 3167 3166 3165 3163 3162 3160 3158 3157 3155 3153
3188 3188 3188 3188 3188 3188 3188 3188 3188 3188 3188 3188 3188 3188 3188 3188 3188 3188 3188 3191 3193 3193 3193 3193 3193 3193 3193 3193 3194 3194 3194 3194 3194 3194 3194 3194 3194 3194 3195 3195 3195 3195 3195 3195 3195 3195 3195 3195 3195 3195 3195 3195 3194 3194 3194 3193 3192 3191 3191 3189 3188 3187 3185 3185 3184 3183 3183 3181 3179 3179 3178 3178 3176 3172 3170 3170 3168 3167 3166 3165 3164 3162 3161 3159 3157 3156 3154 3152
3189 3189 3189 3189 3189 3189 3189 3189 3189 3189 3188 3188 3188 3188 3188 3188 3188 3188 3189 3192 3193 3193 3193 3193 3193 3194 3194 3194 3194 3194 3195 3195 3195 3195 3194 3195 3195 3195 3195 3196 3195 3195 3196 3196 3196 3196 3196 3196 3196 3196 3195 3195 3195 3194 3194 3193 3192 3191 3191 3189 3188 3186 3184 3183 3182 3182 3182 3180 3179 3178 3178 3178 3176 3171 3169 3168 3167 3166 3165 3164 3163 3161 3160 3158 3156 3155 3153 3151
3190 3190 3190 3190 3190 3190 3190 3189 3189 3189 3189 3189 3189 3188 3188 3188 3188 3188 3190 3192 3192 3193 3193 3194 3194 3194 3195 3195 3195 3195 3195 3195 3195 3195 3195 3195 3196 3196 3196 3196 3196 3196 3196 3196 3196 3196 3196 3196 3196 3196 3196 3196 3195 3195 3194 3193 3193 3192 3191 3189 3188 3186 3185 3183 3183 3183 3182 3180 3178 3178 3178 3176 3173 3170 3169 3168 3166 3166 3164 3163 3162 3161 3159 3157 3156 3154 3152 3150
3190 3190 3190 3190 3190 3190 3190 3190 3190 3190 3189 3189 3189 3189 3188 3188 3189 3189 3191 3191 3192 3193 3194 3194 3195 3195 3195 3196 3196 3196 3196 3196 3196 3196 3196 3196 3196 3196 3196 3196 3196 3196 3196 3196 3196 3196 3197 3197 3197 3197 3196 3196 3195 3195 3194 3194 3193 3192 3191 3190 3189 3189 3188 3186 3185 3184 3181 3179 3178 3178 3178 3175 3170 3168 3168 3167 3166 3165 3164 3163 3162 3160 3159 3157 3155 3153 3151 3149
3190 3191 3191 3191 3191 3191 3191 3191 3190 3190 3190 3190 3189 3189 3189 3188 3190 3191 3191 3192 3192 3193 3194 3195 3195 3196 3196 3196 3196 3196 3196 3196 3196 3196 3197 3197 3197 3197 3197 3197 3197 3196 3196 3196 3197 3197 3197 3196 3197 3197 3196 3196 3196 3195 3195 3194 3193 3193 3192 3191 3190 3191 3191 3189 3188 3185 3182 3181 3178 3177 3176 3172 3169 3168 3168 3167 3166 3165 3163 3162 3161 3160 3158 3156 3154 3152 3150 3148
3191 3191 3191 3191 3191 3191 3191 3191 3191 3191 3190 3190 3189 3189 3189 3189 3190 3191 3192 3192 3193 3194 3195 3195 3196 3197 3197 3197 3197 3197 3197 3197 3197 3197 3197 3197 3197 3197 3197 3197 3197 3197 3197 3197 3197 3197 3197 3196 3197 3197 3197 3197 3196 3196 3195 3194 3193 3193 3192 3191 3191 3191 3191 3190 3189 3187 3185 3183 3178 3175 3173 3170 3169 3168 3167 3166 3165 3164 3163 3162 3160 3159 3157 3155 3153 3151 3149 3147
3192 3192 3192 3192 3192 3192 3192 3192 3191 3191 3191 3190 3190 3190 3189 3190 3191 3191 3192 3193 3194 3195 3195 3196 3197 3197 3197 3197 3197 3197 3197 3197 3197 3198 3198 3198 3198 3198 3198 3198 3197 3197 3197 3197 3197 3197 3197 3196 3196 3197 3197 3197 3196 3196 3195 3194 3193 3193 3192 3191 3191 3191 3190 3190 3189 3187 3187 3184 3178 3174 3172 3169 3169 3167 3166 3166 3165 3163 3162 3161 3159 3158 3156 3155 3153 3151 3149 3147
3192 3192 3192 3192 3192 3192 3192 3192 3192 3192 3192 3191 3190 3190 3190 3191 3191 3192 3193 3194 3195 3195 3196 3197 3197 3198 3198 3198 3198 3198 3198 3198 3198 3198 3198 3198 3198 3198 3198 3198 3198 3198 3197 3197 3197 3197 3197 3196 3196 3197 3196 3196 3196 3196 3195 3195 3194 3193 3192 3192 3191 3190 3190 3190 3189 3188 3188 3185 3178 3173 3171 3169 3168 3167 3166 3165 3164 3163 3161 3160 3159 3157 3156 3154 3152 3150 3148 3146
3193 3193 3193 3193 3193 3193 3193 3193 3193 3192 3192 3192 3191 3191 3191 3192 3192 3193 3194 3195 3195 3196 3197 3197 3198 3198 3198 3198 3198 3198 3198 3198 3198 3198 3198 3198 3198 3198 3198 3198 3198 3198 3198 3197 3197 3197 3197 3196 3196 3196 3196 3196 3196 3195 3195 3194 3194 3193 3192 3192 3191 3191 3190 3190 3190 3189 3189 3187 3180 3173 3170 3168 3167 3166 3166 3165 3163 3162 3160 3159 3158 3157 3155 3153 3151 3149 3147 3145
3193 3193 3193 3193 3194 3194 3194 3193 3193 3193 3193 3192 3192 3192 3192 3193 3193 3194 3195 3195 3196 3197 3197 3198 3198 3198 3199 3199 3199 3199 3199 3199 3199 3198 3198 3198 3198 3198 3198 3198 3198 3198 3198 3198 3197 3197 3197 3196 3195 3195 3195 3195 3195 3195 3194 3194 3194 3193 3193 3192 3192 3191 3191 3191 3191 3191 3190 3190 3185 3177 3170 3167 3166 3165 3165 3164 3163 3161 3160 3158 3157 3156 3154 3152 3150 3148 3146 3143
3194 3194 3194 3194 3194 3194 3194 3194 3194 3194 3193 3193 3192 3192 3193 3194 3194 3195 3196 3196 3197 3197 3198 3198 3198 3199 3199 3199 3199 3199 3199 3199 3199 3199 3199 3199 3198 3198 3198 3198 3198 3198 3198 3197 3197 3197 3197 3196 3195 3195 3195 3194 3194 3194 3194 3193 3193 3193 3192 3192 3192 3192 3191 3190 3190 3190 3190 3190 3190 3186 3175 3166 3166 3166 3164 3163 3162 3160 3159 3157 3156 3155 3153 3151 3149 3146 3144 3142
3194 3194 3194 3194 3195 3195 3195 3195 3194 3194 3194 3194 3193 3193 3194 3194 3195 3196 3196 3197 3197 3198 3198 3198 3199 3199 3199 3199 3199 3199 3199 3199 3199 3199 3199 3199 3199 3198 3198 3198 3198 3198 3197 3197 3197 3197 3196 3196 3195 3194 3194 3194 3193 3193 3193 3193 3193 3192 3192 3192 3191 3191 3191 3190 3189 3188 3189 3188 3189 3189 3179 3167 3165 3166 3164 3163 3161 3159 3157 3155 3155 3154 3152 3150 3148 3145 3143 3141
3194 3195 3195 3195 3195 3195 3195 3195 3195 3195 3195 3194 3194 3195 3195 3195 3196 3196 3197 3197 3198 3198 3198 3199 3199 3199 3199 3199 3199 3199 3199 3199 3199 3199 3199 3199 3199 3198 3198 3198 3198 3198 3197 3197 3197 3196 3196 3195 3194 3194 3193 3193 3192 3192 3192 3192 3192 3192 3192 3191 3191 3191 3190 3191 3189 3187 3187 3187 3186 3187 3181 3168 3164 3165 3163 3162 3161 3159 3156 3153 3153 3153 3151 3149 3147 3144 3142 3140
3195 3195 3195 3195 3196 3196 3196 3196 3196 3196 3196 3195 3195 3196 3196 3196 3197 3197 3198 3198 3198 3199 3199 3199 3199 3199 3199 3199 3199 3199 3199 3199 3199 3199 3199 3199 3199 3198 3198 3198 3198 3197 3197 3197 3196 3196 3196 3195 3194 3193 3192 3192 3191 3191 3191 3191 3191 3191 3191 3191 3190 3190 3189 3190 3189 3187 3186 3185 3183 3186 3180 3167 3164 3165 3163 3162 3160 3158 3155 3152 3151 3151 3150 3148 3146 3144 3142 3140
3195 3195 3196 3196 3196 3196 3196 3196 3196 3197 3196 3196 3196 3196 3197 3197 3197 3198 3198 3198 3199 3199 3199 3199 3199 3199 3199 3199 3199 3199 3199 3199 3199 3199 3199 3199 3198 3198 3198 3197 3197 3197 3197 3196 3196 3196 3195 3195 3194 3193 3192 3191 3190 3190 3190 3191 3190 3190 3190 3190 3189 3188 3188 3188 3187 3186 3185 3182 3182 3183 3176 3166 3165 3165 3162 3161 3159 3156 3154 3151 3150 3150 3149 3147 3146 3143 3141 3139
3195 3195 3196 3196 3196 3196 3197 3197 3197 3197 3197 3197 3197 3197 3197 3197 3198 3198 3199 3199 3199 3199 3199 3199 3199 3199 3199 3199 3199 3199 3199 3199 3199 3199 3199 3198 3198 3198 3197 3197 3197 3197 3196 3196 3196 3196 3195 3194 3194 3194 3194 3193 3191 3191 3190 3190 3190 3189 3188 3188 3188 3187 3186 3186 3185 3185 3183 3181 3179 3178 3171 3165 3166 3166 3163 3161 3158 3155 3154 3152 3150 3149 3147 3146 3145 3143 3140 3138
3195 3195 3196 3196 3196 3197 3197 3197 3197 3197 3197 3197 3197 3198 3198 3198 3198 3198 3199 3199 3199 3199 3200 3200 3200 3199 3199 3199 3199 3199 3199 3199 3199 3198 3198 3198 3198 3197 3197 3197 3196 3196 3196 3196 3195 3195 3194 3194 3194 3194 3194 3193 3192 3191 3190 3189 3189 3188 3187 3187 3186 3185 3184 3184 3183 3182 3181 3179 3175 3171 3167 3164 3164 3164 3162 3159 3157 3155 3153 3152 3150 3149 3146 3145 3143 3141 3139 3137
3195 3195 3196 3196 3196 3197 3197 3197 3198 3198 3198 3198 3198 3198 3198 3198 3198 3198 3199 3199 3199 3199 3200 3200 3200 3200 3199 3199 3199 3199 3199 3199 3198 3198 3198 3198 3197 3197 3197 3196 3196 3196 3195 3195 3195 3194 3194 3193 3193 3193 3192 3191 3190 3190 3189 3188 3187 3186 3186 3185 3184 3184 3182 3181 3180 3179 3179 3178 3172 3167 3166 3163 3161 3160 3159 3157 3155 3154 3152 3150 3149 3147 3145 3144 3142 3140 3138 3135
3195 3195 3196 3196 3196 3197 3197 3197 3198 3198 3198 3198 3198 3198 3198 3198 3198 3199 3199 3199 3199 3199 3200 3199 3200 3200 3199 3199 3199 3199 3199 3199 3198 3198 3197 3197 3197 3197 3196 3196 3196 3195 3195 3195 3194 3194 3193 3192 3192 3191 3191 3190 3189 3188 3187 3186 3185 3184 3184 3184 3183 3181 3179 3178 3177 3177 3177 3174 3169 3165 3164 3162 3159 3158 3157 3155 3153 3151 3150 3148 3147 3145 3143 3142 3141 3139 3136 3134
3195 3195 3195 3196 3196 3196 3197 3197 3197 3198 3198 3198 3199 3199 3199 3199 3199 3199 3199 3199 3199 3199 3199 3199 3199 3199 3199 3199 3199 3199 3199 3198 3198 3198 3197 3197 3196 3196 3196 3195 3195 3195 3195 3194 3194 3193 3192 3191 3190 3190 3189 3189 3188 3187 3186 3184 3183 3182 3182 3182 3181 3178 3177 3175 3174 3174 3173 3170 3167 3165 3163 3160 3158 3157 3155 3154 3152 3150 3148 3147 3145 3143 3142 3140 3139 3137 3135 3133
3194 3194 3195 3195 3196 3196 3196 3197 3197 3197 3198 3198 3198 3199 3199 3199 3199 3199 3199 3199 3199 3199 3199 3199 3199 3199 3199 3199 3199 3198 3198 3198 3198 3197 3197 3196 3196 3196 3195 3195 3194 3194 3194 3193 3193 3193 3191 3190 3190 3188 3187 3187 3187 3186 3184 3183 3181 3179 3178 3178 3178 3176 3174 3173 3172 3172 3170 3168 3166 3164 3161 3159 3158 3156 3154 3153 3150 3148 3147 3145 3143 3142 3140 3139 3138 3136 3134 3132
3193 3193 3194 3195 3195 3195 3196 3196 3196 3197 3197 3197 3198 3198 3198 3198 3199 3199 3198 3199 3199 3199 3199 3199 3199 3199 3199 3198 3198 3198 3198 3197 3197 3197 3196 3196 3195 3195 3195 3194 3194 3193 3193 3193 3192 3192 3191 3189 3189 3187 3185 3184 3185 3184 3183 3181 3179 3176 3174 3175 3175 3174 3172 3171 3170 3169 3168 3166 3164 3163 3160 3158 3157 3155 3153 3152 3149 3147 3145 3143 3141 3140 3138 3137 3136 3134 3132 3131
3192 3192 3193 3193 3194 3195 3195 3195 3196 3196 3196 3197 3197 3197 3198 3198 3198 3198 3198 3198 3198 3198 3198 3198 3198 3198 3198 3198 3198 3197 3197 3197 3196 3196 3196 3195 3195 3194 3194 3193 3193 3192 3192 3192 3191 3190 3190 3188 3187 3187 3184 3182 3183 3182 3180 3178 3176 3173 3172 3172 3172 3171 3170 3169 3168 3167 3166 3164 3162 3161 3159 3157 3155 3153 3152 3151 3148 3146 3144 3142 3140 3139 3137 3136 3134 3132 3131 3129